* Astronomy

Members Login
Username 
 
Password 
    Remember Me  
Post Info TOPIC: Asteroid 2015 DR215


L

Posts: 131433
Date:
RE: Asteroid 2015 DR215
Permalink  
 


Asteroid 2015 DR215 makes its closest approach to the Earth (0.970 AU) on the 5th April 2018



__________________


L

Posts: 131433
Date:
Permalink  
 

Orbital elements:
2015 DR215                                          PHA, Earth MOID = 0.0443 AU
Epoch 2014 Dec. 9.0 TT = JDT 2457000.5                  MPC
M  43.52586              (2000.0)            P               Q
n   1.81329592     Peri.   42.12783     +0.99761812     +0.04695974
a   0.6660246      Node   315.10356     -0.06453559     +0.89405643
e   0.4723977      Incl.    4.10497     +0.02435670     +0.44548612
P   0.54           H   20.0           G   0.15           U   9

MPEC 2015 - E12



__________________
Page 1 of 1  sorted by
 
Quick Reply

Please log in to post quick replies.



Create your own FREE Forum
Report Abuse
Powered by ActiveBoard